Location: Barrio de Buenos Aires
(28.4500°N, 16.2667°W)
Time: 14:52:49
(UTC+00:00)

FALCON 9 R/B - Pass Details

Date: 24 January 2020
Orbit: 285 x 10158 km, 34.5° (Epoch: 24 February)

Event Time Altitude Azimuth Distance (km) Brightness Sun altitude
Rises 19:51:35 0° 244° (WSW) 11,211 9.6 -16.3°
Reaches altitude 10° 20:03:01 10° 246° (WSW) 8,248 8.4 -18.8°
Maximum altitude 20:24:09 89° 338° (NNW) 1,512 3.3 -23.3°
Enters shadow 20:26:41 44° 68° (ENE) 1,551 3.0 -23.9°
